CW2449 Weather Reports


time (UTC)temp
F
wind
direction
speed
knots
gust
knots
rain 1hr
in
rain 24hr
in
rain mn
in
humidity
%
barometer
mb
20260505011545 70 128 0.0 0.9 0.00 0.00 0.00 50 1010.6
20260505010027 71 128 0.0 0.0 0.00 0.00 0.00 50 1010.5
20260505004537 73 127 0.0 1.7 0.00 0.00 0.00 48 1010.6
20260505003033 74 128 0.0 1.7 0.00 0.00 0.00 47 1010.5
20260505001533 75 134 1.7 6.1 0.00 0.00 0.00 45 1010.5
20260505000029 76 134 2.6 7.0 0.00 0.00 0.00 43 1010.5
20260504234525 77 130 1.7 8.7 0.00 0.00 0.00 42 1010.6
20260504233031 78 137 3.5 7.0 0.00 0.00 0.00 42 1010.6
20260504231537 78 134 0.9 8.7 0.00 0.00 0.00 42 1010.6
20260504230021 79 108 2.6 9.6 0.00 0.00 0.00 41 1010.7
20260504224507 79 107 1.7 7.0 0.00 0.00 0.00 41 1010.7
20260504223003 79 129 5.2 11.3 0.00 0.00 0.00 41 1010.7
20260504221505 79 103 3.5 10.4 0.00 0.00 0.00 41 1010.8
20260504220029 79 143 4.3 15.6 0.00 0.00 0.00 40 1010.9
20260504214552 80 124 2.6 7.0 0.00 0.00 0.00 41 1011.0
20260504213041 79 142 4.3 8.7 0.00 0.00 0.00 40 1011.0
20260504211518 80 142 3.5 11.3 0.00 0.00 0.00 40 1011.2
20260504210043 79 139 4.3 8.7 0.00 0.00 0.00 41 1011.4
20260504204530 79 134 3.5 11.3 0.00 0.00 0.00 41 1011.6
20260504203025 79 128 6.1 11.3 0.00 0.00 0.00 40 1012.0
20260504201523 80 124 2.6 8.7 0.00 0.00 0.00 41 1012.1
20260504200037 79 68 3.5 11.3 0.00 0.00 0.00 42 1012.4
20260504194559 79 134 4.3 13.9 0.00 0.00 0.00 42 1012.6
20260504193049 78 97 3.5 8.7 0.00 0.00 0.00 43 1012.7
20260504191532 78 139 3.5 10.4 0.00 0.00 0.00 41 1012.8
20260504190018 78 110 3.5 13.0 0.00 0.00 0.00 43 1013.0
20260504184513 78 99 4.3 8.7 0.00 0.00 0.00 42 1013.2
20260504183059 77 128 4.3 12.2 0.00 0.00 0.00 44 1013.3
20260504181513 77 137 4.3 12.2 0.00 0.00 0.00 44 1013.4
20260504180021 78 134 2.6 7.8 0.00 0.00 0.00 42 1013.6
20260504174525 77 134 2.6 10.4 0.00 0.00 0.00 43 1013.6
20260504173031 77 138 3.5 11.3 0.00 0.00 0.00 44 1013.9
20260504171519 76 152 3.5 7.8 0.00 0.00 0.00 44 1014.1
20260504140111 65 133 0.9 4.3 0.00 0.00 0.00 8 1015.7
20260504081537 51 155 0.0 0.0 0.00 0.00 0.00 100 1015.2
20260504044600 53 155 0.0 0.0 0.00 0.00 0.00 100 1016.6
20260504043046 53 155 0.0 0.0 0.00 0.00 0.00 100 1016.8
20260504041520 54 154 0.0 0.0 0.00 0.00 0.00 100 1016.8
20260504040012 54 154 0.0 0.0 0.00 0.00 0.00 7 1016.8
20260504034605 55 154 0.0 0.0 0.00 0.00 0.00 6 1016.9
20260504033048 55 154 0.0 0.0 0.00 0.00 0.00 4 1016.9
20260504031506 56 154 0.0 0.0 0.00 0.00 0.00 11 1017.0
20260504030034 56 154 0.0 0.0 0.00 0.00 0.00 6 1017.0
20260504024550 56 154 0.0 0.0 0.00 0.00 0.00 7 1017.0
20260504023055 57 153 0.0 0.0 0.00 0.00 0.00 18 1016.8
20260504021548 58 153 0.0 0.0 0.00 0.00 0.00 27 1016.7
20260504020023 59 153 0.0 0.0 0.00 0.00 0.00 34 1016.7
20260504014523 59 153 0.0 0.0 0.00 0.00 0.00 39 1016.6
20260504013035 60 153 0.0 1.7 0.00 0.00 0.00 41 1016.5